[[{"header":{"parameterUnit":"m.s-1","parameterCategory":1,"la1":30.2991,"la2":30.254,"lo1":-89.0895,"lo2":-89.0444,"dy":0.0017,"dx":0.0017,"nx":28,"ny":28,"refTime":"2024-09-28T09:00:00:Z","depth":0,"parameterNumber":2,"parameterNumberName":"U-component_of_WINDS"},"data":[0,0,0,0,0,0,0,0,0,0,0,0,0,0,0,0,0,0,0,0,0,0,0,0,0,0,0,0,0,0,0,0,0,0,0,0,0,0,0,0,0,0,0,0,0,0,0,0,0,0,0,0,0,0,0,0,0,0,2.8776,2.8777,0,2.8872,2.8873,2.8874,2.8832,2.8829,2.8827,2.8825,2.8925,2.893,2.8935,0,0,0,0,0,0,0,0,0,0,0,0,0,2.8558,2.8562,2.8776,2.8777,2.8778,2.8872,2.8873,2.8874,2.8832,2.8829,2.8826,2.8824,2.8924,2.8929,2.8935,0,0,0,0,0,0,0,0,0,0,0,0,0,2.8653,2.8563,2.8776,2.8768,2.8769,2.8872,2.8873,2.8875,2.8833,2.8829,2.8825,2.8822,2.8922,2.8929,2.8936,2.9053,0,0,2.8959,2.8962,0,0,0,0,0,0,0,0,2.8648,2.8661,2.8768,2.8769,2.877,2.8836,2.8833,2.8935,2.8833,2.8808,2.8825,2.882,2.8899,2.8908,2.8934,2.9057,2.9062,2.8959,2.8964,2.8967,2.8969,0,0,0,0,0,0,0,2.8641,2.8657,2.8814,2.877,2.8771,2.8761,2.877,2.8852,2.8872,2.881,2.8807,2.8819,2.8898,2.8927,2.8936,2.9063,2.8959,2.8965,2.897,2.8973,2.9287,2.9291,0,0,0,0,0,0,2.8634,2.8651,2.8811,2.8817,2.8698,2.8768,2.8778,2.8818,2.8871,2.8876,2.8822,2.8817,2.8916,2.8927,2.8939,2.9078,2.8967,2.8974,2.8978,2.9283,2.9288,2.9292,0,0,0,0,0,0,2.863,2.8649,2.8807,2.8733,2.8753,2.8775,2.882,2.8822,2.885,2.888,2.8884,2.8847,2.8913,2.8929,2.9024,2.9081,2.8977,2.8984,2.9278,2.9284,2.929,2.9358,0,0,0,0,0,0,2.8624,2.8647,2.8692,2.8735,2.8757,2.8891,2.8824,2.8827,2.8863,2.8857,2.8905,2.8909,2.8912,2.9014,2.9032,2.9089,2.8989,2.9273,2.9281,2.9288,2.9351,2.9366,2.9379,0,0,0,0,0,2.8616,2.8708,2.8694,2.8714,2.8812,2.8894,2.8907,2.8907,2.8868,2.8912,2.8931,2.8908,2.9072,2.9024,2.9044,2.9105,2.927,2.9279,2.9287,2.9345,2.9363,2.9378,0,0,0,0,0,0,2.8672,2.8713,2.8699,2.8807,2.8847,2.8886,2.8943,2.8926,2.8979,2.8971,2.897,2.8981,2.908,2.9102,2.9047,2.922,2.9165,2.9178,2.9202,2.9219,2.9233,2.9225,2.8995,0,0,0,0,0,2.8696,2.8758,2.8792,2.8884,2.8905,2.8921,2.8956,2.8953,2.8995,2.9012,2.9038,2.908,2.9141,2.9182,2.924,2.9354,2.9364,2.9406,2.942,2.9431,2.9442,2.9504,2.9523,2.9321,2.9321,2.9321,0,0,2.8748,2.8779,2.8818,2.8896,2.8927,2.8991,2.8935,2.9006,2.9054,2.9023,2.9114,2.9135,2.9182,2.9288,2.9336,2.9309,2.95,2.9442,2.9451,2.9456,2.9515,2.9534,2.9551,2.9327,2.9326,2.9325,0,0,2.8876,2.8905,2.8985,2.9017,2.9064,2.9074,2.9093,2.9135,2.9147,2.9239,2.9216,2.9274,2.938,2.9414,2.9445,2.9585,2.9565,2.9604,2.9676,2.9736,2.9752,2.9766,2.9816,2.9834,2.9616,2.9616,2.9616,0,2.8935,2.9031,2.9029,2.9101,2.9136,2.911,2.9191,2.9222,2.9286,2.9311,2.928,2.9411,2.9441,2.9554,2.9588,2.9614,2.9636,2.9599,2.975,2.9764,2.9777,2.9825,2.9843,2.962,2.962,2.9619,2.9619,0,2.9101,2.9168,2.9227,2.9288,2.9329,2.9406,2.9416,2.9458,2.9451,2.9465,2.9558,2.9593,2.9657,2.9684,2.9679,2.9797,2.9779,2.9749,2.9694,2.9801,2.9845,2.9863,2.9627,2.9625,2.9624,2.9623,0,0,2.9266,2.9325,2.9346,2.9374,2.9423,2.9475,2.9551,2.9613,2.9649,2.9694,2.9757,2.9847,2.982,2.9855,2.9853,2.9906,3.0015,2.987,2.9871,2.9895,3.0147,3.0168,3.0189,3.0002,3.0005,3.0008,3.0142,0,2.9397,2.9528,2.9528,2.965,2.9711,2.9687,2.9753,2.9791,2.9805,2.986,2.9876,2.9939,2.9899,2.992,2.9971,2.9991,3.0065,2.9981,3.0061,3.0064,3.0049,3.0212,3.0236,3.0361,3.016,3.0163,3.0165,0,2.9568,2.9617,2.9744,2.9784,2.981,2.9869,2.9925,2.9978,3.0021,3.0027,3.0067,3.0057,3.0134,3.0077,3.0183,3.0126,3.0159,3.0173,3.0178,3.0185,3.0121,3.0224,3.0401,3.0419,3.0192,3.019,3.0188,0,2.9675,2.9773,2.9862,2.9886,2.9935,2.9977,3.0,3.0039,3.0076,3.0125,3.0149,3.0208,3.024,3.0286,3.0292,3.025,3.0399,3.0342,3.0407,3.0407,3.044,3.0437,3.0624,3.0462,3.0461,3.0461,3.0461,0,2.9821,2.99,2.9911,2.9965,3.0053,3.0052,3.0139,3.0158,3.0193,3.0251,3.0234,3.0289,3.0294,3.0351,3.0356,3.0443,3.0458,3.0466,3.0467,3.0467,3.0466,3.0489,3.048,3.0466,3.0465,3.0464,3.0463,0,2.9956,2.9966,3.0061,3.0099,3.0111,3.0174,3.0207,3.0259,3.0271,3.0345,3.0362,3.0382,3.0448,3.0459,3.0537,3.0541,3.0645,3.0637,3.063,3.0629,3.0693,3.0687,3.09,3.0928,3.0748,3.075,3.0751,0,3.0048,3.0108,3.0152,3.0189,3.0214,3.0274,3.0311,3.0313,3.0353,3.0406,3.0452,3.0516,3.0567,3.0674,3.0696,3.0755,3.0748,3.0819,3.0757,3.0756,3.0749,3.0745,3.0751,3.0831,3.0833,3.0834,3.0836,0,3.021,3.0212,3.0266,3.0323,3.0367,3.0412,3.0454,3.0486,3.0493,3.0539,3.0606,3.0645,3.0724,3.0788,3.0847,3.0871,3.0855,3.0855,3.0873,3.0874,3.0868,3.0872,3.0662,3.085,3.0848,3.0847,3.0847,3.0846,3.0326,3.0378,3.0417,3.0478,3.0509,3.0549,3.06,3.0618,3.0673,3.0737,3.0735,3.0808,3.0849,3.0927,3.0955,3.1012,3.099,3.1016,3.1023,3.1029,3.1035,3.0859,3.1023,3.1023,3.1023,3.1022,3.1022,0,3.0488,3.0511,3.0567,3.0626,3.0674,3.0653,3.0699,3.074,3.0805,3.0844,3.0894,3.0971,3.1033,3.1059,3.112,3.1161,3.1155,3.1177,3.1174,3.118,3.1052,3.103,3.1181,3.1181,3.1181,3.1181,3.1181,3.1181,3.0577,3.0663,3.067,3.0771,3.0795,3.0866,3.0893,3.093,3.0961,3.1047,3.1097,3.1114,3.1148,3.1211,3.1267,3.1274,3.1297,3.1322,3.1325,3.1205,3.1189,3.1173,3.1153,3.1327,3.1327,3.1448,3.1449,3.145]},{"header":{"parameterUnit":"m.s-1","parameterCategory":1,"la1":30.2991,"la2":30.254,"lo1":-89.0895,"lo2":-89.0444,"dy":0.0017,"dx":0.0017,"nx":28,"ny":28,"refTime":"2024-09-28T09:00:00:Z","depth":0,"parameterNumber":3,"parameterNumberName":"V-component_of_WINDS"},"data":[0,0,0,0,0,0,0,0,0,0,0,0,0,0,0,0,0,0,0,0,0,0,0,0,0,0,0,0,0,0,0,0,0,0,0,0,0,0,0,0,0,0,0,0,0,0,0,0,0,0,0,0,0,0,0,0,0,0,-0.3918,-0.3918,0,-0.3928,-0.3928,-0.3928,-0.3952,-0.3953,-0.3953,-0.3954,-0.3962,-0.3962,-0.3962,0,0,0,0,0,0,0,0,0,0,0,0,0,-0.3918,-0.3918,-0.3918,-0.3918,-0.3918,-0.3928,-0.3928,-0.3928,-0.3952,-0.3953,-0.3953,-0.3954,-0.3963,-0.3962,-0.3962,0,0,0,0,0,0,0,0,0,0,0,0,0,-0.3922,-0.3918,-0.3918,-0.3931,-0.3933,-0.3928,-0.3928,-0.3928,-0.3952,-0.3953,-0.3954,-0.3954,-0.3963,-0.3962,-0.3962,-0.3944,0,0,-0.3961,-0.3961,0,0,0,0,0,0,0,0,-0.3922,-0.3922,-0.3929,-0.393,-0.3932,-0.394,-0.3931,-0.3933,-0.3952,-0.3945,-0.3954,-0.3955,-0.3954,-0.3955,-0.3955,-0.3945,-0.3945,-0.3961,-0.3961,-0.396,-0.396,0,0,0,0,0,0,0,-0.3922,-0.3922,-0.3922,-0.3929,-0.3931,-0.3936,-0.3938,-0.3932,-0.3945,-0.3945,-0.3947,-0.3948,-0.3955,-0.3955,-0.3955,-0.3945,-0.3961,-0.396,-0.396,-0.396,-0.392,-0.3919,0,0,0,0,0,0,-0.392,-0.3921,-0.3921,-0.3922,-0.3929,-0.3936,-0.3937,-0.3936,-0.3945,-0.3947,-0.3947,-0.3949,-0.3955,-0.3955,-0.3955,-0.3934,-0.396,-0.396,-0.396,-0.3921,-0.392,-0.3919,0,0,0,0,0,0,-0.392,-0.3919,-0.3921,-0.3922,-0.3923,-0.3935,-0.3934,-0.3936,-0.3936,-0.3947,-0.3949,-0.3945,-0.3956,-0.3956,-0.3947,-0.3935,-0.396,-0.396,-0.3922,-0.3921,-0.3919,-0.3893,0,0,0,0,0,0,-0.3919,-0.3919,-0.3913,-0.3922,-0.3923,-0.3912,-0.3933,-0.3936,-0.3936,-0.3938,-0.3945,-0.3947,-0.3956,-0.3947,-0.3946,-0.3935,-0.3959,-0.3923,-0.3921,-0.392,-0.3894,-0.3891,-0.3887,0,0,0,0,0,-0.3919,-0.3905,-0.3912,-0.3912,-0.3915,-0.3912,-0.3912,-0.3924,-0.3935,-0.3928,-0.3935,-0.3947,-0.3937,-0.3946,-0.3945,-0.3934,-0.3924,-0.3922,-0.392,-0.3896,-0.3891,-0.3887,0,0,0,0,0,0,-0.3894,-0.3906,-0.3915,-0.3903,-0.3906,-0.3916,-0.3908,-0.3919,-0.3918,-0.3921,-0.3935,-0.3936,-0.3925,-0.3929,-0.3939,-0.3917,-0.3932,-0.393,-0.3914,-0.391,-0.3906,-0.3905,-0.3959,0,0,0,0,0,-0.3887,-0.3883,-0.3894,-0.3883,-0.3884,-0.3896,-0.3895,-0.3903,-0.3907,-0.3908,-0.3915,-0.3917,-0.3915,-0.3913,-0.3911,-0.3896,-0.3897,-0.3887,-0.3884,-0.388,-0.3878,-0.3869,-0.3864,-0.3913,-0.3913,-0.3913,0,0,-0.3872,-0.3878,-0.3875,-0.3878,-0.3881,-0.3877,-0.3897,-0.3891,-0.3888,-0.3908,-0.3899,-0.3904,-0.3908,-0.3895,-0.389,-0.3898,-0.3865,-0.3878,-0.3876,-0.3875,-0.3867,-0.3862,-0.3858,-0.3912,-0.3912,-0.3912,0,0,-0.3843,-0.3848,-0.3838,-0.3841,-0.3847,-0.3855,-0.3852,-0.386,-0.3864,-0.3856,-0.3871,-0.3867,-0.3862,-0.3864,-0.3865,-0.3836,-0.3846,-0.3835,-0.3815,-0.3806,-0.3802,-0.3799,-0.3788,-0.3783,-0.3833,-0.3833,-0.3833,0,-0.3823,-0.3818,-0.3832,-0.3825,-0.3825,-0.3844,-0.3834,-0.3836,-0.384,-0.384,-0.3849,-0.3843,-0.3847,-0.3835,-0.3828,-0.3828,-0.3825,-0.3834,-0.3802,-0.3799,-0.3796,-0.3785,-0.3781,-0.3831,-0.3832,-0.3832,-0.3832,0,-0.3793,-0.3789,-0.3781,-0.3785,-0.3784,-0.3776,-0.3788,-0.3786,-0.3795,-0.3801,-0.3792,-0.3798,-0.3797,-0.3795,-0.3804,-0.3784,-0.3788,-0.38,-0.3815,-0.3789,-0.3779,-0.3775,-0.3829,-0.383,-0.383,-0.3831,0,0,-0.3747,-0.3759,-0.3756,-0.3757,-0.3764,-0.3761,-0.3754,-0.3753,-0.3751,-0.3753,-0.3746,-0.3742,-0.3753,-0.3753,-0.3762,-0.3754,-0.373,-0.3767,-0.3767,-0.3758,-0.3706,-0.3697,-0.3692,-0.3737,-0.3737,-0.3736,-0.3705,0,-0.3718,-0.3706,-0.3719,-0.3704,-0.3699,-0.3717,-0.371,-0.3713,-0.372,-0.3716,-0.3723,-0.372,-0.3734,-0.3735,-0.3728,-0.3734,-0.3719,-0.3737,-0.373,-0.3729,-0.3727,-0.3687,-0.3677,-0.3647,-0.3702,-0.3701,-0.3701,0,-0.3683,-0.3684,-0.3669,-0.3676,-0.3675,-0.3669,-0.3669,-0.3667,-0.367,-0.3675,-0.3676,-0.3687,-0.3679,-0.3696,-0.3685,-0.3696,-0.3694,-0.3697,-0.3696,-0.3695,-0.3712,-0.3683,-0.3638,-0.3633,-0.3695,-0.3695,-0.3696,0,-0.3649,-0.3647,-0.3637,-0.3638,-0.3647,-0.3642,-0.3646,-0.3651,-0.365,-0.365,-0.3649,-0.3649,-0.3648,-0.3647,-0.3657,-0.3668,-0.3644,-0.3662,-0.3647,-0.3646,-0.364,-0.364,-0.3593,-0.3641,-0.3641,-0.3641,-0.3641,0,-0.3615,-0.3604,-0.3622,-0.3616,-0.3604,-0.3619,-0.3607,-0.3612,-0.3616,-0.3611,-0.3626,-0.3621,-0.3635,-0.3631,-0.3639,-0.3628,-0.3628,-0.3631,-0.3633,-0.3629,-0.3628,-0.3626,-0.3628,-0.364,-0.364,-0.364,-0.3641,0,-0.3574,-0.3586,-0.3576,-0.3586,-0.3588,-0.3579,-0.3587,-0.3581,-0.3589,-0.3582,-0.3581,-0.3592,-0.3588,-0.3599,-0.3596,-0.3601,-0.3585,-0.3591,-0.3583,-0.3585,-0.3569,-0.3569,-0.3518,-0.3511,-0.3565,-0.3564,-0.3564,0,-0.3551,-0.3544,-0.3553,-0.355,-0.3553,-0.3549,-0.3548,-0.3562,-0.356,-0.3564,-0.3557,-0.3555,-0.3553,-0.3545,-0.3553,-0.3551,-0.3556,-0.3538,-0.3556,-0.3551,-0.3554,-0.3553,-0.3552,-0.3534,-0.3533,-0.3533,-0.3532,0,-0.3508,-0.3514,-0.3512,-0.3512,-0.3511,-0.3511,-0.3513,-0.351,-0.3525,-0.3522,-0.3518,-0.3517,-0.3514,-0.3511,-0.351,-0.3513,-0.3524,-0.3527,-0.3523,-0.3518,-0.3513,-0.3514,-0.3572,-0.3528,-0.3528,-0.3528,-0.3529,-0.3529,-0.3475,-0.3468,-0.3473,-0.3471,-0.3474,-0.3475,-0.3469,-0.3476,-0.3474,-0.3473,-0.3481,-0.3475,-0.3479,-0.3479,-0.3481,-0.3476,-0.3484,-0.3479,-0.3477,-0.3475,-0.3472,-0.3515,-0.3476,-0.3476,-0.3476,-0.3477,-0.3477,0,-0.3431,-0.3435,-0.3433,-0.3435,-0.3432,-0.3445,-0.3447,-0.3444,-0.3438,-0.3441,-0.3439,-0.3434,-0.3431,-0.3438,-0.3436,-0.343,-0.3435,-0.3429,-0.3429,-0.3429,-0.3466,-0.3469,-0.3425,-0.3425,-0.3425,-0.3425,-0.3425,-0.3425,-0.3408,-0.3398,-0.3404,-0.3395,-0.34,-0.3394,-0.3394,-0.3395,-0.3397,-0.3391,-0.3388,-0.3394,-0.3398,-0.3396,-0.3393,-0.3395,-0.3393,-0.3384,-0.3388,-0.3422,-0.3427,-0.3431,-0.3434,-0.3384,-0.3384,-0.3352,-0.3351,-0.3351]}]]